Location: Poughquag
(41.6090°N, 73.6820°W)
Time: 12:31:00
(UTC-04:00)

Tiros 1 despin weight - Pass Details

Date: 31 May 2020
Orbit: 593 x 642 km, 48.2° (Epoch: 07 July)

Event Time Altitude Azimuth Distance (km) Brightness Sun altitude
Rises 17:50:52 0° 289° (WNW) 2,862 ? 25.7°
Reaches altitude 10° 17:53:35 10° 275° (W) 1,946 ? 25.2°
Maximum altitude 17:57:00 22° 224° (SW) 1,322 ? 24.6°
Drops below altitude 10° 18:00:24 10° 174° (S) 1,920 ? 24.0°
Sets 18:03:03 0° 158° (SSE) 2,814 ? 23.5°
